This is the latest recevied weather packets stored in our database for station/object KJ4HF. If no packets are shown the sender has not sent any weather packets the latest 10 day(s).
| Time | Temp. | Humidity | Pressure | Rain* | Wind** | Luminosity | Snow |
|---|---|---|---|---|---|---|---|
| 1778234144 | 6.67° C | 97% | 1015.9 hPa | 0.25 mm | - | 0 W/m² | - |
| 1778232043 | 7.22° C | 97% | 1015.6 hPa | 0.25 mm | - | 0 W/m² | - |
| 1778231446 | 7.22° C | 98% | 1015.4 hPa | 0 mm | - | 0 W/m² | - |
| 1778228745 | 7.78° C | 97% | 1015.3 hPa | 0 mm | - | 0 W/m² | - |
| 1778228442 | 7.78° C | 97% | 1015.4 hPa | 0 mm | - | 0 W/m² | - |
| 1778226643 | 8.33° C | 97% | 1015.2 hPa | 0 mm | - | 0 W/m² | - |
| 1778224243 | 8.89° C | 97% | 1014.7 hPa | 0 mm | - | 0 W/m² | - |
| 1778221543 | 8.89° C | 97% | 1014.6 hPa | 0 mm | - | 0 W/m² | - |
| 1778220956 | 9.44° C | 97% | 1014.7 hPa | 0 mm | - | 0 W/m² | - |
| 1778217943 | 9.44° C | 97% | 1014.7 hPa | 0 mm | - | 0 W/m² | - |
| 1778217642 | 10° C | 97% | 1014.7 hPa | 0 mm | - | 0 W/m² | - |
| 1778213442 | 10.56° C | 97% | 1014.1 hPa | 0 mm | - | 0 W/m² | - |
| 1778211342 | 10.56° C | 97% | 1014.2 hPa | 0 mm | - | 0 W/m² | - |
| 1778208352 | 11.11° C | 97% | 1013.8 hPa | 0 mm | - | 0 W/m² | - |
| 1778205653 | 11.67° C | 96% | 1013.1 hPa | 0 mm | - | 0 W/m² | - |
| 1778204146 | 11.67° C | 96% | 1012.8 hPa | 0 mm | - | 0 W/m² | - |
| 1778202642 | 12.22° C | 95% | 1012.1 hPa | 0 mm | - | 0 W/m² | - |
| 1778201150 | 12.78° C | 95% | 1011.8 hPa | 0 mm | - | 0 W/m² | - |
| 1778199643 | 13.33° C | 94% | 1011.4 hPa | 0 mm | - | 0 W/m² | - |
| 1778194851 | 14.44° C | 92% | 1010.7 hPa | 0.25 mm | - | 28 W/m² | - |
| 1778192742 | 14.44° C | 91% | 1009.9 hPa | 0.25 mm | - | 91 W/m² | - |
| 1778192151 | 14.44° C | 88% | 1009.7 hPa | 0 mm | - | 37 W/m² | - |
| 1778188243 | 16.67° C | 86% | 1009.3 hPa | 0 mm | - | 647 W/m² | - |
| 1778185856 | 16.67° C | 86% | 1009.2 hPa | 0 mm | - | 158 W/m² | - |
| 1778185244 | 17.22° C | 85% | 1008.9 hPa | 0 mm | - | 167 W/m² | - |
* Rain latest hour (hover to see other rain measurements)
** Current wind speed in m/s (hover to see current wind gust speed)